Time,TemperatureF,DewpointF,PressureIn,WindDirection,WindDirectionDegrees,WindSpeedMPH,WindSpeedGustMPH,Humidity,HourlyPrecipIn,Conditions,Clouds,dailyrainin,SoftwareType,DateUTC
2013-02-24 00:01:00,41.0,40.0,-100.00,SW,227,0.0,1.0,98,0.00,,,-99.99,,2013-02-24 05:01:00,
2013-02-24 00:11:00,41.0,40.0,-100.00,West,277,1.0,2.0,98,0.00,,,-99.99,,2013-02-24 05:11:00,
2013-02-24 00:22:00,41.0,40.0,-100.00,West,277,1.0,2.0,98,0.00,,,-99.99,,2013-02-24 05:22:00,
2013-02-24 00:32:00,41.0,40.0,-100.00,SSW,199,1.0,2.0,98,0.00,,,-99.99,,2013-02-24 05:32:00,
2013-02-24 00:42:00,41.0,40.0,-100.00,SSW,199,1.0,2.0,98,0.00,,,-99.99,,2013-02-24 05:42:00,
2013-02-24 00:52:00,41.0,40.0,-100.00,West,260,1.0,2.0,97,0.00,,,-99.99,,2013-02-24 05:52:00,
2013-02-24 01:02:00,41.0,40.0,-100.00,West,260,1.0,2.0,97,0.00,,,-99.99,,2013-02-24 06:02:00,
2013-02-24 01:11:00,41.0,40.0,-100.00,West,260,1.0,2.0,97,0.00,,,-99.99,,2013-02-24 06:11:00,
2013-02-24 01:21:00,41.0,40.0,-100.00,North,3,0.0,1.0,98,0.00,,,-99.99,,2013-02-24 06:21:00,
2013-02-24 01:32:00,41.0,40.0,-100.00,SW,222,1.0,1.0,97,0.00,,,-99.99,,2013-02-24 06:32:00,
2013-02-24 01:42:00,41.0,40.0,-100.00,SW,222,1.0,1.0,97,0.00,,,-99.99,,2013-02-24 06:42:00,
2013-02-24 01:52:00,40.0,40.0,-100.00,SW,222,0.0,1.0,97,0.00,,,-99.99,,2013-02-24 06:52:00,
2013-02-24 02:01:00,41.0,40.0,-100.00,NNE,25,0.0,1.0,97,0.00,,,-99.99,,2013-02-24 07:01:00,
2013-02-24 02:12:00,41.0,40.0,-100.00,NNE,25,0.0,1.0,97,0.00,,,-99.99,,2013-02-24 07:12:00,
2013-02-24 02:22:00,41.0,40.0,-100.00,NNE,25,0.0,1.0,97,0.00,,,-99.99,,2013-02-24 07:22:00,
2013-02-24 02:32:00,41.0,40.0,-100.00,NNE,25,0.0,1.0,97,0.00,,,-99.99,,2013-02-24 07:32:00,
2013-02-24 02:42:00,40.0,40.0,-100.00,ESE,112,0.0,1.0,98,0.00,,,-99.99,,2013-02-24 07:42:00,
2013-02-24 02:52:00,41.0,40.0,-100.00,WSW,247,2.0,3.0,98,0.00,,,-99.99,,2013-02-24 07:52:00,
2013-02-24 03:01:00,41.0,40.0,-100.00,WSW,247,2.0,3.0,98,0.00,,,-99.99,,2013-02-24 08:01:00,
2013-02-24 03:11:00,41.0,40.0,-100.00,WSW,247,2.0,3.0,98,0.00,,,-99.99,,2013-02-24 08:11:00,
2013-02-24 03:22:00,41.0,40.0,-100.00,WSW,247,2.0,3.0,98,0.00,,,-99.99,,2013-02-24 08:22:00,
2013-02-24 03:32:00,41.0,40.0,-100.00,WNW,302,1.0,2.0,98,0.00,,,-99.99,,2013-02-24 08:32:00,
2013-02-24 03:40:00,41.0,41.0,-100.00,NE,48,2.0,3.0,97,0.17,,,-99.99,,2013-02-24 08:40:00,
2013-02-24 03:42:00,41.0,40.0,-100.00,WNW,302,1.0,2.0,98,0.00,,,-99.99,,2013-02-24 08:42:00,
2013-02-24 03:54:00,41.0,40.0,-100.00,WNW,288,1.0,2.0,97,0.00,,,-99.99,,2013-02-24 08:54:00,
2013-02-24 04:01:00,41.0,40.0,-100.00,WNW,288,1.0,2.0,97,0.00,,,-99.99,,2013-02-24 09:01:00,
2013-02-24 04:11:00,41.0,41.0,-100.00,NE,48,2.0,3.0,97,0.17,,,-99.99,,2013-02-24 09:11:00,
2013-02-24 04:22:00,41.0,41.0,-100.00,NE,48,2.0,3.0,97,0.17,,,-99.99,,2013-02-24 09:22:00,
2013-02-24 04:32:00,41.0,41.0,-100.00,NE,48,2.0,3.0,97,0.17,,,-99.99,,2013-02-24 09:32:00,
2013-02-24 04:52:00,42.0,41.0,-100.00,SSE,161,0.0,1.0,97,0.00,,,-99.99,,2013-02-24 09:52:00,
2013-02-24 05:01:00,41.0,41.0,-100.00,ESE,113,1.0,2.0,97,0.00,,,-99.99,,2013-02-24 10:01:00,
2013-02-24 05:11:00,41.0,41.0,-100.00,ESE,113,1.0,2.0,97,0.00,,,-99.99,,2013-02-24 10:11:00,
2013-02-24 05:22:00,41.0,41.0,-100.00,ESE,113,1.0,2.0,97,0.00,,,-99.99,,2013-02-24 10:22:00,
2013-02-24 05:32:00,41.0,40.0,-100.00,NNW,343,1.0,2.0,98,0.00,,,-99.99,,2013-02-24 10:32:00,
2013-02-24 05:41:00,41.0,40.0,-100.00,NNW,343,1.0,2.0,98,0.00,,,-99.99,,2013-02-24 10:41:00,
2013-02-24 05:52:00,40.0,40.0,-100.00,North,8,1.0,2.0,98,0.00,,,-99.99,,2013-02-24 10:52:00,
2013-02-24 06:01:00,40.0,40.0,-100.00,North,8,1.0,2.0,98,0.00,,,-99.99,,2013-02-24 11:01:00,
2013-02-24 06:11:00,39.0,39.0,-100.00,NNW,328,2.0,3.0,98,0.00,,,-99.99,,2013-02-24 11:11:00,
2013-02-24 06:22:00,39.0,39.0,-100.00,NNW,328,2.0,3.0,98,0.00,,,-99.99,,2013-02-24 11:22:00,
2013-02-24 06:32:00,40.0,40.0,-100.00,West,275,1.0,2.0,98,0.00,,,-99.99,,2013-02-24 11:32:00,
2013-02-24 06:42:00,39.0,39.0,-100.00,NNW,333,1.0,2.0,98,0.00,,,-99.99,,2013-02-24 11:42:00,
2013-02-24 06:53:00,39.0,39.0,-100.00,NNW,333,1.0,2.0,98,0.00,,,-99.99,,2013-02-24 11:53:00,
2013-02-24 07:02:00,41.0,40.0,-100.00,North,8,2.0,3.0,98,0.00,,,-99.99,,2013-02-24 12:02:00,
2013-02-24 07:11:00,41.0,40.0,-100.00,North,8,2.0,3.0,98,0.00,,,-99.99,,2013-02-24 12:11:00,
2013-02-24 07:22:00,41.0,40.0,-100.00,North,357,4.0,6.0,98,0.00,,,-99.99,,2013-02-24 12:22:00,
2013-02-24 07:32:00,41.0,40.0,-100.00,North,357,4.0,6.0,98,0.00,,,-99.99,,2013-02-24 12:32:00,
2013-02-24 07:46:00,41.0,40.0,-100.00,North,357,4.0,6.0,98,0.00,,,-99.99,,2013-02-24 12:46:00,
2013-02-24 08:14:00,41.0,40.0,-100.00,NNE,32,5.0,9.0,98,0.00,,,-99.99,,2013-02-24 13:14:00,
2013-02-24 08:27:00,40.0,40.0,-100.00,North,11,4.0,5.0,98,0.00,,,-99.99,,2013-02-24 13:27:00,
2013-02-24 08:35:00,40.0,40.0,-100.00,NNW,332,4.0,6.0,98,0.00,,,-99.99,,2013-02-24 13:35:00,
2013-02-24 08:45:00,40.0,40.0,-100.00,NNW,332,4.0,6.0,98,0.00,,,-99.99,,2013-02-24 13:45:00,
2013-02-24 08:55:00,41.0,40.0,-100.00,NW,325,2.0,4.0,98,0.00,,,-99.99,,2013-02-24 13:55:00,
2013-02-24 09:05:00,41.0,40.0,-100.00,NW,325,2.0,4.0,98,0.00,,,-99.99,,2013-02-24 14:05:00,
2013-02-24 09:14:00,41.0,41.0,-100.00,North,1,3.0,6.0,98,0.00,,,-99.99,,2013-02-24 14:14:00,
2013-02-24 09:25:00,41.0,41.0,-100.00,North,1,3.0,6.0,98,0.00,,,-99.99,,2013-02-24 14:25:00,
2013-02-24 09:34:00,42.0,41.0,-100.00,North,10,5.0,7.0,98,0.00,,,-99.99,,2013-02-24 14:34:00,
2013-02-24 09:40:00,45.0,40.0,-100.00,North,11,6.0,9.0,82,0.00,,,-99.99,,2013-02-24 14:40:00,
2013-02-24 09:44:00,42.0,41.0,-100.00,North,10,5.0,7.0,98,0.00,,,-99.99,,2013-02-24 14:44:00,
2013-02-24 09:55:00,42.0,42.0,-100.00,NNE,18,6.0,9.0,98,0.00,,,-99.99,,2013-02-24 14:55:00,
2013-02-24 10:04:00,42.0,42.0,-100.00,NNE,18,6.0,9.0,98,0.00,,,-99.99,,2013-02-24 15:04:00,
2013-02-24 10:14:00,45.0,40.0,-100.00,North,11,6.0,9.0,82,0.00,,,-99.99,,2013-02-24 15:14:00,
2013-02-24 10:24:00,45.0,40.0,-100.00,North,11,6.0,9.0,82,0.00,,,-99.99,,2013-02-24 15:24:00,
2013-02-24 10:32:00,45.0,40.0,-100.00,North,11,6.0,9.0,82,0.00,,,-99.99,,2013-02-24 15:32:00,
2013-02-24 10:53:00,49.0,39.0,-100.00,NE,48,4.0,5.0,67,0.00,,,-99.99,,2013-02-24 15:53:00,
2013-02-24 11:02:00,49.0,39.0,-100.00,NE,48,4.0,5.0,67,0.00,,,-99.99,,2013-02-24 16:02:00,
2013-02-24 11:12:00,50.0,38.0,-100.00,NE,49,2.0,4.0,63,0.00,,,-99.99,,2013-02-24 16:12:00,
2013-02-24 11:22:00,50.0,38.0,-100.00,NE,49,2.0,4.0,63,0.00,,,-99.99,,2013-02-24 16:22:00,
2013-02-24 11:32:00,52.0,32.0,-100.00,NNW,332,6.0,11.0,46,0.00,,,-99.99,,2013-02-24 16:32:00,
2013-02-24 11:42:00,52.0,32.0,-100.00,NNW,332,6.0,11.0,46,0.00,,,-99.99,,2013-02-24 16:42:00,
2013-02-24 11:52:00,53.0,31.0,-100.00,North,353,4.0,8.0,43,0.00,,,-99.99,,2013-02-24 16:52:00,
2013-02-24 12:01:00,53.0,34.0,-100.00,NNE,27,5.0,8.0,48,0.00,,,-99.99,,2013-02-24 17:01:00,
2013-02-24 12:11:00,53.0,34.0,-100.00,NNE,27,5.0,8.0,48,0.00,,,-99.99,,2013-02-24 17:11:00,
2013-02-24 12:22:00,53.0,34.0,-100.00,NNE,27,5.0,8.0,48,0.00,,,-99.99,,2013-02-24 17:22:00,
2013-02-24 12:32:00,53.0,33.0,-100.00,NNE,24,6.0,8.0,47,0.00,,,-99.99,,2013-02-24 17:32:00,
2013-02-24 12:42:00,53.0,33.0,-100.00,NNE,24,6.0,8.0,47,0.00,,,-99.99,,2013-02-24 17:42:00,
2013-02-24 12:53:00,54.0,33.0,-100.00,NE,34,6.0,7.0,45,0.00,,,-99.99,,2013-02-24 17:53:00,
2013-02-24 13:02:00,54.0,33.0,-100.00,NE,34,6.0,7.0,45,0.00,,,-99.99,,2013-02-24 18:02:00,
2013-02-24 13:11:00,56.0,33.0,-100.00,NE,37,2.0,4.0,42,0.00,,,-99.99,,2013-02-24 18:11:00,
2013-02-24 13:22:00,57.0,27.0,-100.00,NNW,342,6.0,10.0,32,0.00,,,-99.99,,2013-02-24 18:22:00,
2013-02-24 13:32:00,57.0,27.0,-100.00,NNW,342,6.0,10.0,32,0.00,,,-99.99,,2013-02-24 18:32:00,
2013-02-24 13:42:00,57.0,27.0,-100.00,NNW,342,6.0,10.0,32,0.00,,,-99.99,,2013-02-24 18:42:00,
2013-02-24 13:52:00,57.0,28.0,-100.00,NNE,24,9.0,15.0,33,0.00,,,-99.99,,2013-02-24 18:52:00,
2013-02-24 14:01:00,57.0,28.0,-100.00,NNE,24,9.0,15.0,33,0.00,,,-99.99,,2013-02-24 19:01:00,
2013-02-24 14:12:00,58.0,28.0,-100.00,North,8,8.0,11.0,32,0.00,,,-99.99,,2013-02-24 19:12:00,
2013-02-24 14:22:00,59.0,29.0,-100.00,NW,320,4.0,7.0,31,0.00,,,-99.99,,2013-02-24 19:22:00,
2013-02-24 14:32:00,59.0,29.0,-100.00,NW,320,4.0,7.0,31,0.00,,,-99.99,,2013-02-24 19:32:00,
2013-02-24 14:42:00,59.0,27.0,-100.00,NNE,13,5.0,9.0,29,0.00,,,-99.99,,2013-02-24 19:42:00,
2013-02-24 14:52:00,59.0,27.0,-100.00,NNE,13,5.0,9.0,29,0.00,,,-99.99,,2013-02-24 19:52:00,
2013-02-24 15:02:00,59.0,26.0,-100.00,NNE,20,9.0,12.0,28,0.00,,,-99.99,,2013-02-24 20:02:00,
2013-02-24 15:11:00,59.0,26.0,-100.00,NNE,20,9.0,12.0,28,0.00,,,-99.99,,2013-02-24 20:11:00,
2013-02-24 15:21:00,59.0,26.0,-100.00,NNE,20,9.0,12.0,28,0.00,,,-99.99,,2013-02-24 20:21:00,
2013-02-24 15:32:00,60.0,25.0,-100.00,NNW,342,7.0,12.0,26,0.00,,,-99.99,,2013-02-24 20:32:00,
2013-02-24 15:42:00,60.0,25.0,-100.00,NNE,16,8.0,12.0,26,0.00,,,-99.99,,2013-02-24 20:42:00,
2013-02-24 15:52:00,60.0,25.0,-100.00,NNE,16,8.0,12.0,26,0.00,,,-99.99,,2013-02-24 20:52:00,
2013-02-24 16:02:00,60.0,25.0,-100.00,NNE,16,8.0,12.0,26,0.00,,,-99.99,,2013-02-24 21:02:00,
2013-02-24 16:11:00,60.0,24.0,-100.00,NW,311,8.0,12.0,24,0.00,,,-99.99,,2013-02-24 21:11:00,
2013-02-24 16:21:00,59.0,25.0,-100.00,North,8,5.0,9.0,27,0.00,,,-99.99,,2013-02-24 21:21:00,
2013-02-24 16:32:00,59.0,25.0,-100.00,North,8,5.0,9.0,27,0.00,,,-99.99,,2013-02-24 21:32:00,
2013-02-24 16:42:00,59.0,25.0,-100.00,North,8,5.0,9.0,27,0.00,,,-99.99,,2013-02-24 21:42:00,
2013-02-24 16:52:00,60.0,20.0,-100.00,NW,320,8.0,15.0,21,0.00,,,-99.99,,2013-02-24 21:52:00,
2013-02-24 17:01:00,60.0,20.0,-100.00,NW,320,8.0,15.0,21,0.00,,,-99.99,,2013-02-24 22:01:00,
2013-02-24 17:11:00,60.0,24.0,-100.00,NNE,16,5.0,9.0,25,0.00,,,-99.99,,2013-02-24 22:11:00,
2013-02-24 17:22:00,58.0,24.0,-100.00,North,1,7.0,11.0,26,0.00,,,-99.99,,2013-02-24 22:22:00,
2013-02-24 17:32:00,58.0,24.0,-100.00,North,1,7.0,11.0,26,0.00,,,-99.99,,2013-02-24 22:32:00,
2013-02-24 17:40:00,57.0,22.0,-100.00,NNW,340,4.0,8.0,26,0.00,,,-99.99,,2013-02-24 22:40:00,
2013-02-24 17:42:00,58.0,24.0,-100.00,North,1,7.0,11.0,26,0.00,,,-99.99,,2013-02-24 22:42:00,
2013-02-24 17:52:00,57.0,22.0,-100.00,NNW,340,4.0,8.0,26,0.00,,,-99.99,,2013-02-24 22:52:00,
2013-02-24 18:02:00,57.0,22.0,-100.00,NNW,340,4.0,8.0,26,0.00,,,-99.99,,2013-02-24 23:02:00,
2013-02-24 18:11:00,57.0,22.0,-100.00,NNW,340,4.0,8.0,26,0.00,,,-99.99,,2013-02-24 23:11:00,
2013-02-24 18:21:00,57.0,22.0,-100.00,NNW,340,4.0,8.0,26,0.00,,,-99.99,,2013-02-24 23:21:00,
2013-02-24 18:32:00,57.0,22.0,-100.00,NNW,340,4.0,8.0,26,0.00,,,-99.99,,2013-02-24 23:32:00,
2013-02-24 18:40:00,52.0,30.0,-100.00,NE,52,2.0,3.0,43,0.00,,,-99.99,,2013-02-24 23:40:00,
2013-02-24 18:52:00,55.0,24.0,-100.00,North,359,2.0,4.0,29,0.00,,,-99.99,,2013-02-24 23:52:00,
2013-02-24 19:02:00,55.0,24.0,-100.00,North,359,2.0,4.0,29,0.00,,,-99.99,,2013-02-25 00:02:00,
2013-02-24 19:11:00,52.0,30.0,-100.00,NE,52,2.0,3.0,43,0.00,,,-99.99,,2013-02-25 00:11:00,
2013-02-24 19:21:00,52.0,30.0,-100.00,NE,52,2.0,3.0,43,0.00,,,-99.99,,2013-02-25 00:21:00,
2013-02-24 19:32:00,52.0,30.0,-100.00,NE,52,2.0,3.0,43,0.00,,,-99.99,,2013-02-25 00:32:00,
2013-02-24 19:52:00,47.0,33.0,-100.00,NNW,342,2.0,4.0,56,0.00,,,-99.99,,2013-02-25 00:52:00,
2013-02-24 20:02:00,46.0,31.0,-100.00,North,6,2.0,5.0,55,0.00,,,-99.99,,2013-02-25 01:02:00,
2013-02-24 20:11:00,46.0,31.0,-100.00,North,6,2.0,5.0,55,0.00,,,-99.99,,2013-02-25 01:11:00,
2013-02-24 20:21:00,45.0,31.0,-100.00,North,357,2.0,3.0,57,0.00,,,-99.99,,2013-02-25 01:21:00,
2013-02-24 20:32:00,45.0,31.0,-100.00,North,357,2.0,3.0,57,0.00,,,-99.99,,2013-02-25 01:32:00,
2013-02-24 20:42:00,45.0,31.0,-100.00,North,357,2.0,3.0,57,0.00,,,-99.99,,2013-02-25 01:42:00,
2013-02-24 20:52:00,44.0,31.0,-100.00,NW,308,0.0,1.0,60,0.00,,,-99.99,,2013-02-25 01:52:00,
2013-02-24 21:01:00,45.0,27.0,-100.00,North,350,3.0,5.0,48,0.00,,,-99.99,,2013-02-25 02:01:00,
2013-02-24 21:11:00,45.0,27.0,-100.00,North,350,3.0,5.0,48,0.00,,,-99.99,,2013-02-25 02:11:00,
2013-02-24 21:21:00,48.0,24.0,-100.00,North,0,2.0,4.0,38,0.00,,,-99.99,,2013-02-25 02:21:00,
2013-02-24 21:32:00,48.0,24.0,-100.00,North,0,2.0,4.0,38,0.00,,,-99.99,,2013-02-25 02:32:00,
2013-02-24 21:42:00,48.0,24.0,-100.00,North,0,2.0,4.0,38,0.00,,,-99.99,,2013-02-25 02:42:00,
2013-02-24 21:52:00,46.0,26.0,-100.00,NW,318,3.0,5.0,47,0.00,,,-99.99,,2013-02-25 02:52:00,
2013-02-24 22:01:00,46.0,26.0,-100.00,NW,318,3.0,5.0,47,0.00,,,-99.99,,2013-02-25 03:01:00,
2013-02-24 22:11:00,46.0,24.0,-100.00,WNW,298,2.0,3.0,42,0.00,,,-99.99,,2013-02-25 03:11:00,
2013-02-24 22:21:00,47.0,22.0,-100.00,NNW,332,4.0,6.0,38,0.00,,,-99.99,,2013-02-25 03:21:00,
2013-02-24 22:32:00,47.0,22.0,-100.00,NNW,332,4.0,6.0,38,0.00,,,-99.99,,2013-02-25 03:32:00,
2013-02-24 22:42:00,47.0,22.0,-100.00,NNW,332,4.0,6.0,38,0.00,,,-99.99,,2013-02-25 03:42:00,
2013-02-24 22:52:00,48.0,21.0,-100.00,NNE,18,6.0,9.0,34,0.00,,,-99.99,,2013-02-25 03:52:00,
2013-02-24 23:02:00,47.0,22.0,-100.00,NNE,17,6.0,9.0,37,0.00,,,-99.99,,2013-02-25 04:02:00,
2013-02-24 23:11:00,47.0,22.0,-100.00,NNE,17,6.0,9.0,37,0.00,,,-99.99,,2013-02-25 04:11:00,
2013-02-24 23:21:00,47.0,22.0,-100.00,NNE,17,6.0,9.0,37,0.00,,,-99.99,,2013-02-25 04:21:00,
2013-02-24 23:32:00,46.0,25.0,-100.00,NE,35,6.0,8.0,43,0.00,,,-99.99,,2013-02-25 04:32:00,
2013-02-24 23:42:00,46.0,25.0,-100.00,NE,35,6.0,8.0,43,0.00,,,-99.99,,2013-02-25 04:42:00,
2013-02-24 23:52:00,45.0,23.0,-100.00,ENE,68,4.0,8.0,42,0.00,,,0.17,,2013-02-25 04:52:00,